Regional Weather Roundup
Issued by NWS Cleveland, OH

Home | Current Version | Previous Version | Graphics & Text | Print | Product List | Glossary On
Versions: 1 2 3 4 5 6 7 8 9 10 11 12 13 14 15 16 17 18 19 20 21 22 23 24 25 26 27 28 29 30 31 32 33 34 35 36 37 38 39 40 41 42 43 44 45 46 47 48 49 50
000
ASUS41 KCLE 192000
RWRCLE
OHIO REGIONAL WEATHER ROUNDUP
NATIONAL WEATHER SERVICE WILMINGTON, OH
400 PM EDT THU OCT 19 2017

NOTE: "FAIR" INDICATES FEW OR NO CLOUDS BELOW 12,000 FEET WITH NO
SIGNIFICANT WEATHER AND/OR OBSTRUCTIONS TO VISIBILITY.

OHZ001>008-015>018-024>027-034-035-043-044-192100-
   NORTHWEST OHIO

CITY           SKY/WX    TMP DP  RH WIND       PRES   REMARKS
DEFIANCE       FAIR      70  44  39 SW8       30.14S
FINDLAY        FAIR      73  49  42 W16       30.13F
TOLEDO EXPRESS FAIR      73  43  33 W12       30.11S
TOLEDO EXEC    FAIR      72  48  42 SW16      30.12S
LIMA           FAIR      72  50  45 W13       30.15S
$$

OHZ009>014-019>023-028>033-038-089-192100-
   NORTHEAST OHIO

CITY           SKY/WX    TMP DP  RH WIND       PRES   REMARKS
CLE-HOPKINS    FAIR      74  50  42 SW18      30.13F
CLE-LAKEFRONT  FAIR      69  56  62 W8        30.10S
CUY CO. ARPT   MOSUNNY   72  52  49 W16       30.11F
LORAIN-ELYRIA  FAIR      73  46  38 W13       30.12F
ASHTABULA      FAIR      71  49  45 W12G21    30.10F
AKRON-CANTON   FAIR      72  49  44 SW15      30.14F
WOOSTER        NOT AVBL
MANSFIELD      FAIR      73  47  39 SW12      30.15S
YOUNGSTOWN     CLOUDY    71  48  43 SW17G26   30.12F
$$

OHZ042-051>053-060>062-070>072-077>081-192100-
  SOUTHWEST OHIO

CITY           SKY/WX    TMP DP  RH WIND       PRES   REMARKS
CINC-COVINGTON FAIR      72  52  49 SW10G17   30.20S
CINC-LUNKEN    FAIR      73  53  49 SW8       30.20S
HAMILTON       FAIR      75  52  44 VRB6      30.20S
DAYTON         NOT AVBL
WRIGHT-PAT AFB FAIR      73  50  44 SW13      30.18S
DAYTON GENERAL FAIR      71  50  47 S10       30.18F
WILMINGTON     FAIR      71  52  50 SW13      30.20S
$$

OHZ036-037-039>041-045>050-054>059-063>069-073>076-082>088-192100-
  CENTRAL AND SOUTHEAST OHIO

CITY           SKY/WX    TMP DP  RH WIND       PRES   REMARKS
COLUMBUS       FAIR      73  49  42 SW13      30.17S
OSU AIRPORT    FAIR      73  50  44 SW13      30.17S
BOLTON FIELD   SUNNY     73  52  46 SW9G17    30.18F
RICKENBACK AFB FAIR      72  49  44 SW13      30.17F
NEWARK         FAIR      74  47  38 SW12      30.17S
MARION         FAIR      74  46  36 W9        30.15S
LANCASTER      FAIR      72  51  47 SW13      30.19S
ZANESVILLE     FAIR      71  48  43 SW8       30.18S
NEW PHILLY     FAIR      73  49  42 SW8G17    30.17S
$$




USA.gov is the U.S. government's official web portal to all federal, state and local government web resources and services.